Flag for U.S.A. Weather past 2 weeks in Chinle, Arizona, U.S.A.

Now
38 °F

Clear.


Feels Like: 38 °F
Forecast: 44 / 71 °F
Wind: No wind

Location: Gallup Municipal Airport

Current Time: Oct 21, 2014 at 6:39:09 AM

Latest Report: Oct 21, 2014 at 5:53 AM


Visibility: 10 mi

Pressure: 29.95 "Hg

Humidity: 93%

Dew point: 36 °F

Location of ChinleLocation

Historic Weather in Chinle — Graph

°F

Chinle temperature yesterday

Maximum temperature yesterday: 65 °F (at 4:53 PM)
Minimum temperature yesterday: 39 °F (at 3:53 AM)
Average temperature yesterday: 50 °F

Past Weeks' High & Low Weather Summary

 TemperatureHumidityPressure
High79 °F (Oct 6, 4:53 PM)97% (Oct 9, 5:02 AM)30.26 "Hg (Oct 9, 5:02 AM)
Low28 °F (Oct 13, 7:53 AM)10% (Oct 6, 4:53 PM)29.53 "Hg (Oct 12, 1:53 PM)
Average53 °F53%29.93 "Hg
* Reported Oct 6 4:53 AM — Oct 21 4:53 AM, Chinle, Weather by CustomWeather, © 2014

Note: Actual official high and low records may vary slightly from our data, if they occured in-between our weather recording intervals... More about our weather records

Advertising

Chinle weather history for previous 24 hours

 ConditionsComfort  
Time TempWeatherWind HumidityBarometerVisibility
4:53 AM
Oct 21
40 °FClear.No wind93%29.91 "Hg10 mi
3:53 AM40 °FPassing clouds.No wind93%29.93 "Hg10 mi
2:53 AM40 °FClear.No wind93%29.96 "Hg10 mi
1:53 AM43 °FClear.No wind89%29.95 "Hg10 mi
12:53 AM43 °FClear.No wind89%29.96 "Hg10 mi
11:53 PM
Oct 20
45 °FPassing clouds.No wind86%29.96 "Hg10 mi
10:53 PM49 °FMostly cloudy.3 mph77%29.94 "Hg10 mi
9:53 PM53 °FClear.6 mph64%29.96 "Hg10 mi
8:53 PM53 °FClear.3 mph72%29.96 "Hg10 mi
7:53 PM53 °FPassing clouds.3 mph74%29.99 "Hg10 mi
6:53 PM58 °FPartly sunny.5 mph62%29.95 "Hg10 mi
5:53 PM62 °FSunny.9 mph52%29.91 "Hg10 mi
4:53 PM65 °FSunny.No wind42%29.90 "Hg10 mi
3:53 PM64 °FSunny.5 mph47%29.90 "Hg10 mi
2:53 PM60 °FScattered clouds.10 mph62%29.94 "Hg10 mi
1:53 PM60 °FOvercast.12 mph67%29.95 "Hg10 mi
12:53 PM58 °FMostly cloudy.5 mph62%30.01 "Hg10 mi
11:53 AM56 °FLight rain. Mostly cloudy.3 mph70%30.03 "Hg10 mi
10:53 AM54 °FOvercast.5 mph67%30.04 "Hg10 mi
9:53 AM49 °FPartly sunny.7 mph74%30.07 "Hg10 mi
8:53 AM46 °FPartly sunny.8 mph79%30.07 "Hg10 mi
7:53 AM41 °FPartly cloudy.3 mph89%30.09 "Hg10 mi
6:53 AM39 °FClear.No wind89%30.08 "Hg10 mi
Weather by CustomWeather, © 2014

See weather overviewHow to use our weather pages